Skip Page Navigation
NASA JPL Caltech
NASA Logo - Jet Propulsion Laboratory + View the NASA Portal
+ Center for Near-Earth Object Studies
JPL Home Earth Solar System Stars & Galaxies Technology
JPL Solar System Dynamics
BODIES ORBITS EPHEMERIDES TOOLS PHYSICAL DATA DISCOVERY FAQ SITE MAP
IMPORTANT: The SSD Announcement email list is now available. Major changes are coming in the near future, including possible hostname and/or URL changes. To be notified of such changes, subscribe to this email list.

Please visit this page for more details.


JPL Small-Body Database Browser
Search: [ help ]  
14121 Stuwe (1998 QM54)
Classification: Main-belt Asteroid          SPK-ID: 2014121
Ephemeris | Orbit Diagram | Orbital Elements | Mission Design | Physical Parameters | Discovery Circumstances | Close-Approach Data ]

[ show orbit diagram ]
Orbital Elements at Epoch 2458600.5 (2019-Apr-27.0) TDB
Reference: JPL 24 (heliocentric ecliptic J2000)
 Element Value Uncertainty (1-sigma)   Units 
e .1728985932311841 3.5584e-08  
a 2.230178637018095 6.6789e-09 au
q 1.844583888023427 7.9381e-08 au
i 3.98863802717008 3.3883e-06 deg
node 301.4735496958248 5.5791e-05 deg
peri 58.54881538515013 5.671e-05 deg
M 67.67847606115258 9.5466e-06 deg
tp 2458371.805366244407
(2018-Sep-10.30536624)
3.236e-05 TDB
period 1216.488209303386
3.33
5.4646e-06
1.496e-08
d
yr
n .2959338177277951 1.3294e-09 deg/d
Q 2.615773386012763 7.8336e-09 au
  Orbit Determination Parameters
   # obs. used (total)      1777  
   data-arc span      18464 days (50.55 yr)  
   first obs. used      1968-08-27  
   last obs. used      2019-03-17  
   planetary ephem.      DE431  
   SB-pert. ephem.      SB431-N16  
   condition code      0  
   norm. resid. RMS      .47061  
   source      ORB  
   producer      Otto Matic  
   solution date      2019-Jul-12 19:25:35  

Additional Information
 Earth MOID = .843838 au 
 Jupiter MOID = 2.83907 au 
 T_jup = 3.620 
[ show covariance matrix ]

Ephemeris | Orbit Diagram | Orbital Elements | Mission Design | Physical Parameters | Discovery Circumstances | Close-Approach Data ]

Physical Parameter Table
Parameter Symbol Value Units Sigma Reference Notes
absolute magnitude H 13.9   n/a MPO263475  
diameter diameter 3.709 km 0.169 urn:nasa:pds:neowise_diameters_albedos::2.0[mainbelt] (http://adsabs.harvard.edu/abs/2011ApJ...741...68M)  
rotation period rot_per 4.6741 h n/a LCDB (Rev. 2019-January); Warner et al., 2009 Published Reference List:
[Pravec, P.; Wolf, M.; Sarounova, L. (2018) http://www.asu.cas.cz/~ppravec/neo.htm]
geometric albedo albedo 0.323   0.059 urn:nasa:pds:neowise_diameters_albedos::2.0[mainbelt] (http://adsabs.harvard.edu/abs/2011ApJ...741...68M)  

14121 Stüwe           Discovered 1998 Aug. 27 by the Lowell Observatory Near-Earth Object Search at the Anderson Mesa Station.
Joachim A. Stüwe (b. 1958), of the Astronomisches Institut, Ruhr-Universität Bochum, has catalogued dark clouds and globules in the southern Milky Way and pioneered the development of distance determination algorithms for interstellar clouds based on automatic star counts.
NOTE: some special characters may not display properly (any characters within {} are an attempt to place the proper accent above a character)
Reference: 20030318/MPCPages.arcLast Updated: 2003-10-02

[ show close-approach data ]
Alternate Designations
 1998 QM54 = 1968 QV = 1985 VQ5 
Ephemeris | Orbit Diagram | Orbital Elements | Mission Design | Physical Parameters | Discovery Circumstances | Close-Approach Data ]
ABOUT SSD CREDITS/AWARDS PRIVACY/COPYRIGHT GLOSSARY LINKS
FirstGov
(server date/time)  
NASA Home Page
Site Manager:   Ryan S. Park
Webmaster  Alan B. Chamberlin